Lid_Strength_Index
10 13 13 11 10 11 11 11 11 10 9 9 10 9 8 7 7 6 6 5 5 4 3 2 1 1 1 0 1 1 1 0 1 1 2 1 2 1 0 -0 -1 -1 -1 -1
12 14 11 10 10 11 11 12 12 10 9 10 10 10 9 8 7 6 6 5 4 4 3 2 2 1 1 1 1 1 1 1 1 1 1 0 1 1 0 -0 -0 -1 -1 -1
13 12 10 11 11 12 12 12 12 12 10 10 11 11 10 8 7 6 6 6 5 5 4 3 2 2 1 1 1 1 1 1 1 0 0 0 0 1 1 1 1 -0 -1 -1
11 9 11 11 11 11 13 9 10 11 12 14 10 14 11 9 8 7 6 6 5 5 4 4 3 2 1 1 1 1 1 1 1 0 1 1 2 3 1 1 1 1 -1 -0
11 11 11 11 10 9 11 10 10 10 11 11 11 13 10 9 9 7 6 5 5 4 4 3 2 2 1 1 1 1 1 1 1 1 1 1 1 1 1 1 1 1 -0 -0
9 7 8 9 8 9 8 9 10 10 11 15 11 12 11 9 9 8 7 6 5 4 4 3 2 2 2 1 1 1 1 1 1 1 1 1 1 1 1 1 1 1 1 0
10 10 8 7 10 8 8 11 16 18 18 16 11 12 9 9 8 8 7 6 5 4 4 4 3 3 2 2 2 2 1 2 2 1 1 1 1 1 1 1 1 1 1 1
13 16 10 8 9 11 10 10 14 17 17 14 12 14 11 8 7 6 6 5 5 5 4 4 3 3 2 2 2 2 2 2 2 2 1 1 1 1 1 1 1 1 1 0
13 13 8 8 7 8 11 13 10 15 14 15 12 10 8 8 8 7 6 6 6 5 5 5 3 3 2 2 2 2 2 2 2 2 1 2 1 1 1 0 0 0 0 0
9 14 9 9 7 8 9 8 15 13 19 19 14 13 12 11 9 8 7 6 6 5 5 6 4 3 2 2 2 2 2 2 3 2 2 1 1 0 0 0 0 0 0 0
8 10 13 10 11 11 12 12 12 12 14 18 17 15 10 9 8 8 7 6 6 6 6 7 4 3 2 2 2 3 2 2 3 2 2 1 1 1 0 0 0 0 0 0
8 10 14 12 9 7 9 11 11 15 17 14 15 14 8 7 6 6 7 6 6 5 8 9 8 4 3 3 3 3 3 2 2 2 2 1 1 1 1 1 0 0 0 0
8 11 16 15 11 9 11 10 11 12 13 16 16 13 7 6 6 6 7 7 6 7 9 10 10 8 5 4 3 3 3 2 2 2 3 2 2 1 1 1 0 0 0 0
6 10 12 15 13 11 13 11 10 12 15 14 14 12 9 7 7 7 7 7 7 8 10 11 11 9 9 6 3 3 3 3 3 3 3 3 2 1 1 1 0 0 0 1
8 12 11 11 10 10 10 11 10 11 11 13 11 11 9 8 7 7 7 7 8 9 12 12 12 11 10 9 9 7 3 3 3 3 3 3 2 2 1 1 1 0 0 0
9 13 11 13 10 11 12 11 11 11 10 10 10 11 7 8 7 8 9 10 10 12 12 14 13 13 11 10 10 10 9 9 8 7 7 3 3 3 3 2 2 1 1 1
10 11 13 15 12 12 14 12 11 10 9 10 13 10 8 12 13 14 12 12 12 12 13 14 15 14 12 11 11 12 12 11 11 11 10 9 7 7 6 4 3 2 1 1
10 11 11 14 13 18 12 8 8 9 9 9 9 9 10 12 13 14 13 14 14 14 14 15 16 15 13 12 11 12 12 12 13 13 12 12 10 10 9 9 9 7 6 7
7 9 12 13 14 12 11 10 10 11 11 9 10 9 9 10 10 14 14 14 14 14 14 14 14 16 14 13 12 12 13 14 14 14 13 13 12 12 12 11 11 10 10 12
8 8 10 12 15 17 12 8 6 7 13 8 8 10 9 10 12 14 14 14 14 14 14 14 14 14 16 14 13 14 15 14 14 14 14 13 13 13 13 12 12 12 13 14
11 11 13 13 14 12 9 7 6 13 14 9 9 11 12 15 14 14 14 15 14 14 14 14 14 15 15 14 14 14 14 15 14 14 14 14 13 13 13 12 12 13 13 14
12 13 13 12 15 18 9 7 11 10 10 10 10 10 11 11 12 14 15 15 15 15 14 13 14 15 15 14 14 15 15 15 15 14 15 15 15 14 13 13 13 13 13 14
13 11 13 12 13 10 10 11 11 10 12 11 10 10 11 11 13 14 15 15 15 15 14 13 14 15 15 15 15 15 15 14 14 14 14 15 15 15 15 14 14 14 13 13
9 7 11 11 11 11 10 10 10 11 11 11 11 11 10 12 12 14 15 16 16 16 15 14 13 14 15 15 15 15 14 13 14 14 15 16 16 15 14 14 14 14 14 14
8 8 11 11 10 10 11 11 10 11 10 11 11 12 12 12 13 13 14 15 16 16 15 15 14 14 14 14 14 14 13 13 13 14 14 14 15 16 17 17 16 16 16 15
8 11 11 12 11 11 12 11 11 12 13 12 12 12 12 12 13 13 14 14 14 15 15 15 15 15 15 14 14 14 13 13 12 13 13 13 13 13 13 14 16 16 16 15